AirNav   TITAN Aviation Fuels
 
 1168 users online  

1TA7 Thompson Field Airport
Canton, Texas, USA

GOING TO CANTON?


FAA INFORMATION EFFECTIVE 04 NOVEMBER 2021

Location

FAA Identifier: 1TA7
Lat/Long: 32-36-57.0000N 095-52-05.1750W
32-36.950000N 095-52.086250W
32.6158333,-95.8681042
(estimated)
Elevation: 518 ft. / 158 m (estimated)
Variation: 06E (1990)
From city: 4 miles N of CANTON, TX
Time zone: UTC -5 (UTC -6 during Standard Time)
Zip code: 75103

Airport Operations

Airport use: Private use. Permission required prior to landing
Activation date: 07/1995
Control tower: no
ARTCC: FORT WORTH CENTER
FSS: FORT WORTH FLIGHT SERVICE STATION
Attendance: MON-FRI 0800-1700
Wind indicator: yes
Segmented circle: no
Beacon: white-green (lighted land airport)
Operates sunset to sunrise.

Nearby radio navigation aids

VOR radial/distance  VOR name  Freq  Var
TYRr298/28.2TYLER VOR/DME114.2006E
CQYr028/31.3CEDAR CREEK VORTAC114.8006E
FZTr326/36.7FRANKSTON VOR/DME111.4006E
SLRr197/38.6SULPHUR SPRINGS VOR/DME109.0008E

 
NDB name  Hdg/Dist  Freq  Var  ID
CROSSROADS360/33.421508ECSZ -.-. ... --..
MESQUITE106/35.324803EPQF .--. --.- ..-.
AMBASSADOR266/38.240407EABG .- -... --.

Airport Services

Fuel available: 100LL
Parking: hangars
Airframe service: MAJOR
Powerplant service: MAJOR

Runway Information

Runway 13/31

Dimensions: 2500 x 40 ft. / 762 x 12 m
Surface: asphalt
RUNWAY 13  RUNWAY 31
Latitude: 32-37.095833N32-36.804167N
Longitude: 095-52.258333W095-51.914167W
Elevation: 513.0 ft.511.0 ft.
Traffic pattern: leftright

Airport Ownership and Management from official FAA records

Ownership: Privately-owned
Owner: THOMPSON AIRFIELD, LLC
690 VZCR 3119
EDGEWOOD, TX 75117
Phone 903-896-4647
Manager: MARK THOMPSON
690 VZCR 3119
EDGEWOOD, TX 75117
Phone 903-896-4647

Airport Operational Statistics

Aircraft based on the field: 53
Single engine airplanes: 48
Multi engine airplanes: 3
Helicopters: 2
    

Additional Remarks

PPR TO LAND. AGRICULTURE ACFT OPR ON FLD.
FOR CD CTC FORT WORTH ARTCC AT 817-858-7584.

Instrument Procedures

There are no published instrument procedures at 1TA7.

Some nearby airports with instrument procedures:

3F9 - Mineola Airport-Wisener Field (18 nm E)
KJDD - Wood County Airport - Collins Field (20 nm E)
KTRL - Terrell Municipal Airport (21 nm W)
F44 - Athens Municipal Airport (27 nm S)
KTYR - Tyler Pounds Regional Airport (28 nm SE)
 
Loc | Ops | Rwys | IFR | FBO | Links
Com | Nav | Svcs | Stats | Notes

City of Fort Worth
 
Area around 1TA7 (Thompson Field Airport)
 
Road maps at: MapQuest Bing Google
 
Aerial photo
WARNING: Photo may not be current or correct
Aerial photo of 1TA7 (Thompson Field Airport)
Photo by Jon Hicks
Taken in August 2010
looking southeast.

Do you have a better or more recent aerial photo of Thompson Field Airport that you would like to share? If so, please send us your photo.

 
Sectional chart

 
Airport distance calculator
Flying to Thompson Field Airport? Find the distance to fly.

From to 1TA7

Sunrise and sunset
Times for 27-Nov-2021
 Local
(UTC-6)
 Zulu
(UTC)
Morning civil twilight06:3812:38
Sunrise07:0513:05
Sunset17:1723:17
Evening civil twilight17:4423:44

Current date and time
Zulu (UTC)  28-Nov-2021 00:18:34
Local (UTC-6)  27-Nov-2021 18:18:34
 
METAR
KJDD 
20nm E 
272355Z AUTO 00000KT 7SM RA BR SCT070 SCT080 OVC110 10/08 A3009 RMK AO2 P0001
KTRL 
21nm W 
271953Z AUTO 19007KT 10SM OVC060 12/06 A3008 RMK AO2 SLP186 T01170061
KF44 
27nm S 
272355Z AUTO 00000KT 10SM SCT045 OVC060 11/07 A3009 RMK AO2
KTYR 
28nm SE 
272353Z 18004KT 10SM OVC065 11/07 A3009 RMK AO2 SLP190 60000 T01060072 10117 20089 53005 $
KGVT 
29nm N 
272355Z AUTO 18007KT 10SM -RA OVC100 10/08 A3008 RMK AO2 TSNO T00980084 10129 20098 401290009
KF46 
34nm NW 
272355Z AUTO 17004KT 7SM RA SCT045 OVC060 10/10 A3008 RMK AO2 P0005 60005 T01020102 10123 20102
KHQZ 
34nm W 
272352Z 00000KT 7SM -RA BKN030 OVC036 11/11 A3009
KSLR 
35nm N 
272355Z AUTO 21006KT 10SM BKN110 11/08 A3009 RMK AO2 P0001 60001 T01050082 10127 20096
TAF
KTYR 
28nm SE 
271720Z 2718/2818 20009KT P6SM -RA OVC070 FM280100 22006KT 5SM -RA BR OVC035 FM280300 21005KT 3SM SHRA BR OVC005 FM281300 35003KT P6SM OVC010 FM281600 36005KT P6SM SCT025
NOTAMs
Click for the latest NOTAMs
NOTAMs are issued by the DoD/FAA and will open in a separate window not controlled by AirNav.

 

 
 

Would you like to see your business listed on this page?

 If your business provides an interesting product or service to pilots, flight crews, aircraft, or users of the Thompson Field Airport, you should consider listing it here.  To start the listing process, click on the button below
 
Add a business
 

Other Pages about Thompson Field Airport

www.tailwindairpark.com
 
Update a link
 
Copyright © AirNav, LLC. All rights reserved. Privacy Policy  Contact